Wind_Speed
6 7 9 13 16 19 21 24 26 27 27 28 29 29 29 28 27 27 26 27 26 26 26 28 29 30 31 34 38 40 42 38 31 28 25 30 37 40 40 36 34 32 29 27 26
10 12 15 17 20 22 24 25 25 25 25 27 28 30 28 27 27 27 28 27 27 28 29 28 29 30 31 32 34 36 41 41 36 32 31 32 34 41 43 40 35 33 31 32 29
15 18 20 21 22 22 21 21 22 23 25 27 28 29 28 28 28 27 28 28 29 29 30 31 31 32 32 33 34 35 35 37 39 38 37 35 35 36 44 44 34 35 38 34 34
20 23 23 23 20 20 18 18 21 25 26 28 28 27 27 27 29 28 29 30 31 32 33 33 33 33 33 35 36 38 36 37 36 36 42 39 37 38 41 40 39 39 39 35 32
23 25 22 18 18 18 19 22 24 28 28 30 30 29 29 30 30 31 33 34 34 35 35 36 35 35 35 36 36 37 38 40 40 40 40 43 38 40 38 36 42 43 43 35 33
24 23 22 20 20 21 23 25 27 30 31 31 30 30 31 32 32 33 35 35 36 38 41 42 43 44 43 42 43 42 42 41 42 44 41 41 40 41 33 37 41 46 45 39 35
24 22 21 22 23 24 27 28 30 31 31 31 32 33 33 34 34 36 39 41 41 41 41 45 47 48 49 49 49 48 47 46 44 45 46 44 43 40 40 43 41 43 46 44 39
21 21 21 23 25 24 26 28 29 29 29 32 34 36 38 38 39 41 42 45 48 48 49 52 53 55 54 54 54 52 52 51 48 49 52 47 44 34 45 46 44 43 44 45 43
19 19 20 21 24 25 24 25 27 30 34 36 37 38 38 37 37 38 40 41 41 45 49 51 52 54 56 57 58 58 58 56 56 56 57 56 46 42 46 49 48 47 43 44 46
22 22 21 22 21 21 22 25 30 30 32 32 32 34 36 34 34 33 35 37 42 46 49 50 53 54 56 58 58 59 59 59 60 59 61 60 53 51 52 51 51 50 49 45 46
23 21 19 17 18 19 24 28 30 32 33 33 34 39 39 38 35 35 36 46 49 47 48 48 49 51 54 56 59 61 63 61 56 62 65 63 60 57 54 55 51 51 53 47 47
19 19 18 19 19 21 26 26 32 33 37 36 39 43 43 43 41 38 41 46 47 50 47 47 47 47 49 51 53 57 62 62 66 66 70 70 67 65 58 56 56 54 55 53 45
16 17 20 21 22 25 26 29 32 37 36 33 40 43 43 43 45 42 44 45 47 51 44 41 38 36 37 40 44 46 49 52 61 63 68 74 75 69 60 59 58 56 57 55 51
16 18 20 21 23 26 29 32 32 36 39 33 40 42 44 45 45 46 45 45 49 50 44 38 35 35 35 36 37 34 44 48 51 59 61 62 79 74 68 61 61 58 59 57 55
16 19 21 21 25 29 32 34 35 38 41 41 42 43 46 44 43 44 44 44 47 48 45 39 35 33 34 36 38 38 41 42 46 54 60 58 66 75 70 66 61 58 58 59 57
18 21 23 28 29 33 34 35 38 40 40 39 43 44 43 43 44 45 44 44 46 47 40 39 35 33 30 30 29 30 28 31 40 44 59 58 59 65 64 62 58 57 59 61 60
20 24 27 27 29 34 36 39 39 39 40 42 43 44 45 44 44 44 44 44 47 51 46 32 30 31 30 27 29 23 32 39 35 39 44 40 45 60 53 57 59 55 56 61 59
24 28 30 32 34 38 40 42 39 41 42 43 43 44 46 45 44 44 44 44 48 50 51 44 30 26 25 23 21 22 30 28 29 35 33 37 40 46 50 53 60 60 59 61 58
26 28 32 34 37 38 41 44 45 42 42 43 44 45 47 46 44 43 44 44 48 52 53 50 32 30 31 21 17 17 23 24 26 28 33 31 22 31 39 54 58 59 58 61 60
28 29 31 32 36 40 44 48 43 41 41 43 45 47 47 45 44 44 43 44 47 50 55 52 43 29 26 24 20 18 23 18 25 21 23 32 17 26 38 45 56 56 57 58 60
30 33 34 37 40 43 45 51 48 44 43 45 47 48 47 47 46 45 43 44 48 50 55 55 48 32 27 25 21 16 13 15 22 24 27 23 24 31 25 32 49 54 56 57 54
33 34 36 41 42 44 48 53 51 46 45 46 47 48 47 48 46 46 45 47 51 55 59 57 52 40 28 26 20 18 11 10 14 19 31 26 16 18 16 28 32 51 54 53 53
35 37 39 42 44 47 50 53 52 46 45 47 49 49 49 49 48 46 47 49 54 59 61 58 51 46 31 26 22 16 19 15 11 16 20 22 18 29 20 26 42 42 49 52 52
39 42 44 45 48 49 51 54 52 49 48 48 48 49 50 48 48 49 51 54 59 63 59 57 47 39 36 28 25 18 16 16 12 13 18 24 29 15 31 25 27 43 44 50 53
41 43 45 46 47 49 52 55 53 49 49 50 50 51 52 50 50 51 56 59 64 65 58 53 44 38 32 25 22 19 17 15 12 13 16 18 26 28 36 11 37 38 45 48 51
43 44 45 47 47 49 53 55 52 50 51 51 52 51 52 53 53 56 63 70 73 67 58 46 33 26 23 20 17 14 16 14 17 12 13 13 22 30 36 32 18 41 39 44 45
42 43 44 46 48 50 53 56 54 51 52 54 53 52 52 52 56 61 70 74 72 61 47 39 31 18 14 10 10 14 14 15 15 19 16 17 21 32 43 43 42 22 36 39 38
Wind_Direction
285 285 291 299 301 302 304 305 305 303 303 302 300 298 294 288 284 281 279 280 281 278 275 272 271 269 269 268 265 263 262 260 259 257 251 242 240 243 246 244 245 246 239 237 240
297 298 297 298 299 301 302 306 309 313 314 310 308 302 297 291 286 283 280 280 278 278 277 274 271 269 267 266 267 267 263 263 261 258 252 247 240 241 243 242 239 241 236 232 237
306 304 302 302 304 309 314 320 321 321 318 314 311 304 298 293 288 285 283 281 280 277 275 274 271 269 267 266 267 265 266 263 259 258 256 248 244 244 242 244 240 242 239 232 238
321 318 315 312 310 310 314 322 325 325 323 319 312 305 301 295 288 284 284 284 280 277 273 269 269 268 267 267 266 266 265 265 263 259 253 251 246 242 243 243 240 239 243 239 237
324 319 311 307 313 318 324 324 323 321 318 317 316 312 303 297 293 292 289 283 277 272 269 269 268 267 267 268 269 268 263 262 261 259 255 252 246 243 240 244 243 240 240 238 240
325 319 311 312 315 316 318 320 317 317 316 313 311 310 309 301 296 291 287 284 280 275 271 268 268 268 268 268 269 267 265 262 259 259 259 255 248 242 231 240 244 243 241 236 235
322 319 308 306 312 315 315 314 317 319 315 312 310 307 304 300 297 292 288 283 278 275 272 272 270 270 269 268 266 265 263 261 259 258 259 257 248 244 237 233 239 242 239 236 231
324 321 315 307 308 313 318 324 325 324 320 316 313 308 304 300 297 291 287 287 285 281 275 273 271 271 269 267 267 263 259 257 256 258 260 256 248 243 241 235 233 240 241 237 231
333 330 326 323 322 325 327 327 330 329 326 320 315 312 310 308 304 300 296 293 291 289 285 282 279 276 272 269 264 261 261 259 254 253 255 255 244 238 241 237 230 234 238 237 231
332 332 330 327 326 331 338 339 335 332 333 331 333 334 331 321 314 308 307 307 303 295 290 285 279 276 274 272 269 265 261 258 257 255 255 253 246 239 237 236 230 229 234 233 229
333 337 340 340 340 343 343 339 335 335 338 336 339 341 343 338 323 319 322 323 314 305 298 291 287 283 279 274 270 267 264 259 255 255 253 251 246 243 238 235 232 229 230 232 231
342 349 347 347 349 342 335 336 340 339 341 341 340 337 335 337 333 325 325 323 312 314 304 296 293 288 283 278 273 270 266 260 257 257 255 250 243 242 239 236 233 225 229 228 227
353 355 356 357 345 337 336 336 335 338 340 339 336 334 332 331 331 326 327 323 316 326 313 307 300 290 281 274 271 270 269 263 260 257 256 255 246 244 238 236 234 227 224 226 224
356 1 2 353 350 349 344 343 341 337 338 336 330 331 332 329 329 329 327 322 327 332 322 310 304 296 292 286 279 272 269 265 259 258 255 252 251 244 239 235 233 228 224 223 222
352 354 350 349 348 347 347 346 341 338 338 333 330 330 330 328 327 326 326 323 331 336 329 316 310 302 296 290 286 279 273 269 267 263 257 248 252 242 239 233 232 229 225 225 219
348 348 349 346 351 347 342 338 335 339 335 332 332 332 329 326 325 326 324 321 328 336 335 326 321 316 306 297 286 276 269 276 272 272 260 246 249 246 237 230 229 229 224 224 222
343 345 346 348 347 347 345 343 338 334 335 333 332 330 329 328 327 325 323 321 326 336 341 338 332 315 310 295 294 276 282 291 272 274 265 262 260 246 239 230 225 225 221 222 221
341 343 344 343 346 348 347 344 334 337 337 332 332 332 331 330 329 326 325 325 329 335 340 345 341 319 320 316 291 281 285 284 267 268 276 260 259 248 238 228 224 221 216 216 215
338 339 342 343 344 345 346 344 343 335 333 333 333 334 333 334 331 328 327 328 330 334 338 342 355 335 322 332 290 281 300 284 292 275 260 276 268 253 238 227 222 221 216 216 214
334 336 339 342 342 341 345 347 339 334 335 335 334 335 335 334 332 330 329 330 330 332 336 337 338 334 321 328 307 299 300 274 277 276 256 267 264 253 250 230 219 218 214 215 216
331 334 336 339 341 345 344 345 342 340 338 337 335 335 336 334 334 332 331 329 328 331 332 331 332 336 319 317 323 283 272 290 271 260 239 266 233 242 249 228 218 215 213 212 214
327 331 333 336 339 340 342 344 344 341 339 338 337 337 336 334 336 333 331 330 329 328 329 327 326 323 318 312 319 309 298 310 270 233 229 240 254 149 231 203 209 213 210 210 213
321 328 330 334 337 338 341 344 344 340 338 339 338 337 337 336 335 334 331 329 325 324 325 324 322 316 310 304 304 302 299 288 272 256 246 233 218 176 222 196 216 205 208 208 212
323 325 329 332 335 339 341 344 343 340 339 340 338 337 337 336 334 333 329 327 327 325 322 317 315 305 302 300 291 289 292 261 251 216 224 225 220 145 196 151 205 208 207 210 211
322 326 331 334 336 339 340 342 342 339 338 340 339 337 336 336 335 332 330 327 325 323 320 313 310 295 291 288 284 283 279 267 224 182 210 238 211 218 187 199 159 207 211 213 213
322 325 329 334 338 339 340 341 342 339 340 341 339 338 337 336 334 334 331 328 327 327 322 320 318 300 291 277 262 255 257 255 253 207 190 208 197 218 212 215 154 169 198 213 213
322 324 328 335 337 338 340 341 341 341 340 341 340 338 337 336 336 335 333 332 331 330 326 326 321 312 296 283 235 217 231 235 239 245 221 215 200 192 212 214 198 180 178 202 212
Height
5790 5789 5789 5788 5786 5785 5783 5781 5779 5777 5775 5773 5769 5767 5766 5765 5764 5763 5763 5762 5761 5760 5759 5758 5757 5757 5757 5757 5758 5758 5758 5762 5768 5771 5774 5771 5773 5772 5772 5778 5781 5785 5791 5795 5796
5788 5787 5786 5784 5783 5781 5779 5777 5774 5772 5770 5767 5764 5762 5760 5758 5757 5756 5756 5756 5755 5753 5752 5751 5750 5750 5750 5749 5749 5749 5751 5754 5760 5761 5763 5763 5765 5764 5765 5768 5774 5778 5782 5787 5791
5785 5784 5783 5781 5779 5777 5775 5772 5771 5768 5765 5763 5760 5757 5754 5753 5752 5751 5750 5749 5747 5746 5745 5744 5743 5742 5741 5741 5741 5742 5744 5744 5747 5751 5752 5754 5757 5757 5757 5761 5771 5772 5772 5780 5784
5782 5780 5777 5776 5775 5773 5772 5770 5768 5765 5761 5757 5754 5751 5749 5747 5746 5745 5743 5742 5740 5738 5737 5736 5735 5734 5734 5733 5733 5733 5736 5735 5738 5739 5739 5744 5748 5750 5751 5761 5761 5763 5766 5773 5779
5779 5776 5774 5774 5772 5771 5768 5766 5763 5760 5756 5752 5748 5745 5743 5741 5739 5737 5735 5732 5731 5730 5729 5727 5726 5724 5724 5724 5724 5724 5725 5724 5726 5727 5729 5731 5738 5740 5748 5754 5752 5753 5757 5766 5771
5777 5773 5771 5769 5769 5767 5764 5762 5758 5755 5752 5748 5744 5740 5737 5734 5732 5729 5725 5724 5722 5721 5718 5717 5715 5713 5713 5713 5712 5713 5714 5715 5716 5716 5719 5721 5726 5730 5746 5742 5742 5745 5750 5757 5764
5774 5770 5767 5765 5764 5763 5760 5757 5753 5749 5746 5742 5738 5734 5730 5727 5724 5720 5716 5713 5712 5711 5709 5704 5703 5702 5701 5700 5701 5701 5702 5703 5706 5706 5705 5709 5715 5726 5732 5728 5731 5734 5739 5748 5756
5770 5767 5764 5762 5760 5759 5756 5752 5748 5744 5740 5735 5731 5726 5721 5718 5716 5710 5708 5703 5698 5697 5696 5692 5690 5687 5686 5685 5686 5687 5688 5691 5695 5694 5691 5697 5707 5720 5713 5718 5724 5725 5730 5738 5747
5767 5764 5762 5759 5756 5755 5752 5748 5744 5739 5734 5729 5724 5718 5713 5709 5706 5700 5697 5695 5692 5686 5682 5677 5674 5671 5670 5668 5670 5670 5673 5676 5677 5679 5677 5680 5695 5704 5700 5704 5712 5714 5719 5727 5736
5764 5762 5760 5756 5753 5750 5748 5744 5741 5736 5731 5724 5718 5714 5708 5704 5699 5694 5689 5686 5683 5677 5670 5665 5659 5656 5653 5651 5652 5653 5657 5661 5664 5667 5664 5667 5680 5682 5685 5689 5697 5704 5708 5715 5725
5761 5759 5756 5753 5750 5747 5744 5740 5738 5733 5727 5721 5714 5708 5702 5697 5692 5686 5682 5677 5670 5663 5657 5652 5645 5640 5636 5634 5634 5635 5637 5642 5653 5647 5644 5651 5659 5667 5672 5677 5685 5693 5698 5706 5715
5758 5756 5753 5750 5748 5745 5741 5736 5731 5727 5721 5715 5707 5701 5695 5689 5685 5678 5673 5666 5658 5650 5643 5636 5629 5625 5620 5618 5617 5618 5619 5630 5627 5626 5622 5628 5637 5643 5657 5666 5671 5680 5686 5694 5702
5756 5753 5750 5748 5745 5741 5737 5732 5726 5720 5715 5709 5703 5696 5690 5684 5676 5671 5663 5655 5647 5638 5628 5622 5617 5611 5607 5605 5603 5605 5605 5609 5605 5604 5605 5609 5616 5631 5646 5652 5660 5668 5675 5680 5692
5754 5751 5749 5746 5743 5737 5733 5727 5721 5716 5710 5704 5696 5689 5683 5674 5667 5660 5651 5645 5635 5626 5616 5610 5605 5599 5595 5593 5592 5597 5588 5589 5592 5585 5588 5596 5593 5612 5628 5639 5643 5655 5663 5671 5681
5752 5749 5746 5743 5739 5734 5729 5722 5717 5711 5704 5698 5690 5681 5671 5666 5658 5651 5644 5636 5627 5617 5607 5600 5595 5590 5584 5581 5578 5581 5575 5574 5573 5570 5572 5584 5577 5597 5609 5623 5636 5646 5655 5661 5671
5750 5747 5742 5738 5734 5730 5724 5718 5711 5705 5698 5691 5682 5673 5666 5656 5649 5642 5636 5629 5622 5614 5605 5590 5585 5579 5574 5570 5567 5565 5563 5563 5560 5558 5551 5568 5566 5571 5591 5613 5624 5631 5641 5649 5659
5748 5745 5741 5737 5732 5726 5719 5712 5706 5699 5693 5684 5676 5667 5659 5650 5642 5634 5628 5621 5613 5605 5596 5591 5580 5571 5566 5564 5557 5556 5553 5551 5549 5544 5540 5554 5550 5558 5578 5591 5605 5611 5623 5634 5643
5746 5741 5737 5732 5726 5719 5713 5708 5701 5693 5684 5677 5668 5660 5650 5643 5635 5626 5619 5612 5603 5595 5586 5580 5574 5566 5559 5553 5551 5548 5546 5540 5537 5537 5538 5540 5539 5552 5565 5570 5577 5590 5601 5613 5623
5742 5737 5732 5727 5721 5715 5709 5702 5692 5685 5679 5670 5661 5653 5645 5636 5626 5618 5610 5604 5595 5586 5578 5570 5570 5560 5552 5549 5546 5543 5537 5534 5532 5533 5532 5533 5536 5536 5541 5551 5561 5575 5588 5600 5610
5738 5734 5728 5723 5717 5711 5703 5695 5687 5678 5671 5663 5654 5647 5637 5629 5621 5610 5602 5596 5587 5579 5570 5565 5559 5558 5550 5546 5540 5536 5532 5530 5527 5528 5527 5528 5531 5529 5531 5536 5550 5564 5578 5589 5601
5734 5730 5724 5718 5712 5704 5698 5690 5681 5671 5664 5656 5647 5639 5630 5621 5613 5604 5596 5588 5579 5572 5565 5556 5553 5552 5543 5539 5535 5532 5528 5525 5523 5523 5522 5524 5523 5523 5525 5533 5544 5556 5568 5579 5589
5729 5725 5719 5713 5708 5699 5691 5683 5675 5665 5656 5648 5640 5631 5623 5614 5607 5597 5588 5578 5569 5561 5555 5548 5541 5537 5537 5532 5529 5524 5522 5519 5518 5519 5518 5518 5519 5516 5522 5529 5536 5547 5557 5568 5578
5724 5720 5714 5707 5700 5693 5684 5677 5668 5659 5650 5642 5634 5624 5615 5606 5598 5589 5581 5573 5561 5551 5543 5535 5529 5521 5525 5524 5522 5521 5517 5515 5512 5513 5512 5513 5515 5516 5519 5517 5529 5539 5549 5559 5569
5718 5712 5707 5701 5694 5686 5678 5670 5660 5651 5643 5635 5627 5618 5609 5601 5591 5583 5573 5565 5552 5539 5530 5520 5517 5511 5509 5510 5510 5511 5509 5508 5508 5509 5507 5506 5510 5512 5519 5513 5521 5534 5542 5551 5561
5712 5705 5701 5695 5688 5681 5672 5663 5654 5645 5637 5629 5619 5609 5601 5593 5584 5574 5563 5555 5546 5529 5516 5505 5503 5497 5497 5498 5500 5500 5501 5501 5503 5502 5504 5503 5505 5513 5517 5511 5513 5526 5536 5542 5553
5705 5700 5694 5689 5681 5673 5665 5657 5648 5638 5631 5622 5613 5602 5592 5582 5572 5563 5552 5536 5521 5511 5498 5490 5486 5483 5485 5486 5489 5492 5491 5494 5495 5497 5497 5499 5501 5505 5512 5511 5512 5516 5528 5537 5546
5699 5694 5689 5682 5675 5667 5659 5650 5641 5633 5624 5614 5605 5596 5586 5576 5565 5553 5538 5522 5503 5490 5480 5477 5474 5474 5476 5478 5480 5484 5485 5486 5489 5490 5493 5495 5495 5497 5501 5508 5509 5506 5520 5532 5539